Location: Brienzwiler
(46.7508°N, 8.1014°E)
Time: 07:59:40
(UTC+00:00)

Genesis I - Pass Details

Date: 05 July 2020
Orbit: 509 x 513 km, 64.5° (Epoch: 05 August)

Event Time Altitude Azimuth Distance (km) Brightness Sun altitude
Exits shadow 22:18:35 51° 173° (S) 650 3.2 -18.6°
Maximum altitude 22:19:17 62° 124° (ESE) 577 3.1 -18.6°
Drops below altitude 10° 22:23:08 10° 43° (NE) 1,739 6.2 -18.8°
Sets 22:25:19 0° 40° (NE) 2,629 7.3 -18.9°
